Weather Roundup
Issued by NWS Springfield, MO

Current Version | Previous Version | Text Only | Print | Product List | Glossary On
Versions: 1 2 3 4 5 6 7 8 9 10 11 12 13 14 15 16 17 18 19 20 21 22 23 24 25 26 27 28 29 30 31 32 33 34 35 36 37 38 39 40 41 42 43 44 45 46 47 48 49 50
000
NZUS99 KSGF 290407
HRRSGF

HOURLY WEATHER
NATIONAL WEATHER SERVICE SPRINGFIELD MO
1000 PM CST SUN DEC 28 2014

......SGF CWA......

CITY           SKY/WX    TMP DP  RH WIND       PRES   REMARKS
SPRINGFIELD    CLEAR     26  21  81 CALM      30.16R
JOPLIN         CLEAR     27  23  85 E5        30.17S WCI  22
WEST PLAINS    CLEAR     23  20  88 CALM      30.18S
ROLLA          CLEAR     25  21  85 CALM      30.18S
OSAGE BEACH    CLEAR     25  21  86 CALM      30.20S
BRANSON        CLEAR     25  23  93 CALM      30.17S

......SURROUNDING SGF CWA......

CITY           SKY/WX    TMP DP  RH WIND       PRES   REMARKS
CHANUTE        CLEAR     27  20  75 SE3       30.17R
PARSONS        CLEAR     23  20  88 CALM      30.18R
COFFEYVILLE    FAIR      26  21  81 CALM      30.17R
EMPORIA        PTCLDY    25  18  74 S7        30.15R WCI  17
GROVE OK       CLEAR     28  28 100 CALM      30.18S
ROGERS AR      CLEAR     30  26  85 E7        30.15S WCI  23
SILOAM SPRINGS   N/A     28  19  69 E5        30.16R WCI  23
HARRISON AR    CLEAR     27  23  85 CALM      30.16S
NEAR YELLVILLE CLEAR     27  21  80 CALM      30.18S

......KANSAS AND MISSOURI......

CITY           SKY/WX    TMP DP  RH WIND       PRES   REMARKS
KANSAS CTY INT CLOUDY    29  21  72 SE6       30.17S WCI  23
DOWNTOWN KC    MOCLDY    33  23  66 CALM      30.18S
COLUMBIA       PTCLDY    31  22  69 SE3       30.20S
SEDALIA        CLEAR     31  17  56 CALM      30.20S
ST JOSEPH      CLOUDY    28  23  81 N3        30.19R
ST LOUIS       CLEAR     28  22  78 CALM      30.23F
SPIRIT OF STL  CLEAR     24  21  88 CALM      30.23S
KIRKSVILLE     PTCLDY    28  19  69 CALM      30.20S
WICHITA        CLEAR     29  17  61 E6        30.12R WCI  23
TOPEKA         CLOUDY    32  23  69 CALM      30.18R
OLATHE         PTCLDY    28  18  66 SE5       30.17R WCI  23

......TENNESSEE......

CITY           SKY/WX    TMP DP  RH WIND       PRES   REMARKS
MEMPHIS        CLOUDY    38  35  89 N6        30.18R WCI  33
NASHVILLE      CLOUDY    37  35  92 N8        30.18S WCI  31

......ARKANSAS.......

CITY           SKY/WX    TMP DP  RH WIND       PRES   REMARKS
FAYETTEVILLE   CLEAR     24  23  96 CALM      30.16R
FT SMITH       CLEAR     31  26  82 NE3       30.18R
LITTLE ROCK    MOCLDY    37  31  78 NE5       30.20S WCI  33

......OKLAHOMA.......

CITY           SKY/WX    TMP DP  RH WIND       PRES   REMARKS
TULSA          CLEAR     30  22  72 CALM      30.16R
PONCA CITY     CLEAR     30  20  66 SE9       30.13S WCI  22
MCALESTER      PTCLDY    27  24  89 CALM      30.17R
OKLAHOMA CITY  PTCLDY    30  20  66 SE8       30.10R WCI  22

......IOWA............

CITY           SKY/WX    TMP DP  RH WIND       PRES   REMARKS
DES MOINES     CLOUDY    30  22  72 NE7       30.21R WCI  23
QUAD CITIES    PTCLDY    23  18  81 CALM      30.24R

......ILLINOIS........

CITY           SKY/WX    TMP DP  RH WIND       PRES   REMARKS
QUINCY         MOCLDY    28  22  78 CALM      30.22R
CHICAGO        PTCLDY    26  18  71 NW7       30.23R WCI  18




USA.gov is the U.S. government's official web portal to all federal, state and local government web resources and services.